User: anonymous   Login
Location: Hiram
(41.3130°N, 81.1440°W)
Time: 23:58:18
(UTC-04:00)
Language:

Iridium 62 - Orbit

View from above orbital plane
View from above orbital plane
View from above satellite
View from above satellite

Ground track
Ground track

The orbit data is extracted from the following two-line orbital elements,

1 25285U 98021A   15123.24825486  .00000346  00000-0  11656-3 0  9998
2 25285 086.4003 188.2512 0002395 092.7161 267.4309 14.34216506893808
Epoch (UTC): 03 May 2015 05:57:29
Eccentricity: 0.0002395
inclination: 86.4003°
perigee height: 776 km
apogee height: 779 km
right ascension of ascending node: 188.2512°
argument of perigee: 92.7161°
revolutions per day: 14.34216506
mean anomaly at epoch: 267.4309°
orbit number at epoch: 89380

The dashed part of the orbit path shows where the satellite is in the earth's shadow,  

DLR